TimeEDT,TemperatureF,Dew PointF,Humidity,Sea Level PressureIn,VisibilityMPH,Wind Direction,Wind SpeedMPH,Gust SpeedMPH,PrecipitationIn,Events,Conditions,WindDirDegrees,DateUTC
12:54 AM,66.0,63.0,90,29.86,10.0,NNE,5.8,-,N/A,,Clear,30,2013-08-31 04:54:00
1:54 AM,64.9,62.1,90,29.86,10.0,NNE,4.6,-,N/A,,Clear,30,2013-08-31 05:54:00
2:38 AM,64.4,62.6,94,29.87,10.0,Calm,Calm,-,N/A,,Mostly Cloudy,0,2013-08-31 06:38:00
2:54 AM,64.0,61.0,90,29.87,10.0,Calm,Calm,-,N/A,,Overcast,0,2013-08-31 06:54:00
3:54 AM,64.9,62.1,90,29.87,10.0,North,5.8,-,N/A,,Overcast,10,2013-08-31 07:54:00
4:01 AM,64.4,62.6,94,29.87,10.0,NNE,6.9,-,N/A,,Overcast,20,2013-08-31 08:01:00
4:54 AM,64.9,61.0,87,29.88,10.0,NE,5.8,-,N/A,,Overcast,40,2013-08-31 08:54:00
5:54 AM,63.0,60.1,90,29.88,10.0,ENE,3.5,-,N/A,,Scattered Clouds,70,2013-08-31 09:54:00
6:30 AM,57.2,55.4,94,29.89,1.8,Calm,Calm,-,N/A,,Clear,0,2013-08-31 10:30:00
6:38 AM,59.0,57.2,94,29.89,4.0,Calm,Calm,-,N/A,,Clear,0,2013-08-31 10:38:00
6:54 AM,57.9,55.9,93,29.90,10.0,Calm,Calm,-,N/A,,Clear,0,2013-08-31 10:54:00
7:54 AM,60.1,57.9,93,29.90,10.0,Calm,Calm,-,N/A,,Clear,0,2013-08-31 11:54:00
8:16 AM,60.8,59.0,94,29.91,10.0,Calm,Calm,-,N/A,,Mostly Cloudy,0,2013-08-31 12:16:00
8:47 AM,64.4,60.8,88,29.90,10.0,Calm,Calm,-,N/A,,Scattered Clouds,0,2013-08-31 12:47:00
8:54 AM,66.0,60.1,81,29.89,10.0,Calm,Calm,-,N/A,,Partly Cloudy,0,2013-08-31 12:54:00
9:36 AM,66.2,60.8,83,29.89,10.0,East,4.6,-,N/A,,Mostly Cloudy,80,2013-08-31 13:36:00
9:54 AM,68.0,60.1,76,29.89,10.0,East,3.5,-,N/A,,Mostly Cloudy,80,2013-08-31 13:54:00
10:03 AM,66.2,60.8,83,29.90,10.0,Variable,3.5,-,N/A,,Scattered Clouds,0,2013-08-31 14:03:00
10:54 AM,70.0,61.0,73,29.89,10.0,Calm,Calm,-,N/A,,Partly Cloudy,0,2013-08-31 14:54:00
11:54 AM,71.1,61.0,70,29.88,10.0,ESE,3.5,-,N/A,,Mostly Cloudy,120,2013-08-31 15:54:00
12:54 PM,73.9,60.1,62,29.88,10.0,North,4.6,-,N/A,,Overcast,350,2013-08-31 16:54:00
1:54 PM,77.0,61.0,58,29.87,10.0,Variable,4.6,-,N/A,,Mostly Cloudy,0,2013-08-31 17:54:00
2:54 PM,77.0,60.1,56,29.87,10.0,NNW,5.8,-,N/A,,Overcast,340,2013-08-31 18:54:00
3:54 PM,77.0,61.0,58,29.86,10.0,North,5.8,-,N/A,,Clear,360,2013-08-31 19:54:00
4:54 PM,75.0,62.1,64,29.86,10.0,WNW,4.6,-,N/A,,Mostly Cloudy,300,2013-08-31 20:54:00
5:54 PM,78.1,62.1,58,29.85,10.0,Variable,4.6,-,N/A,,Overcast,0,2013-08-31 21:54:00
6:54 PM,75.9,62.1,62,29.84,10.0,NW,6.9,-,N/A,,Overcast,310,2013-08-31 22:54:00
7:54 PM,72.0,62.1,71,29.83,10.0,North,3.5,-,N/A,,Clear,360,2013-08-31 23:54:00
8:54 PM,64.9,61.0,87,29.84,10.0,Calm,Calm,-,N/A,,Clear,0,2013-09-01 00:54:00
9:54 PM,61.0,60.1,97,29.85,10.0,Calm,Calm,-,N/A,,Clear,0,2013-09-01 01:54:00
10:54 PM,59.0,57.0,93,29.88,10.0,Calm,Calm,-,N/A,,Clear,0,2013-09-01 02:54:00
11:54 PM,57.9,55.9,93,29.88,10.0,Calm,Calm,-,N/A,,Clear,0,2013-09-01 03:54:00